Stations météo

réclame
Mon MeteoGroup
Junsele, Suède (2244): Température de l'air & dewpoint: 11.11.2017 23:00:00 - 17.11.2017 23:00:00 (CET)Junsele, Suède (2244): Vitesse du vent & gusts: 11.11.2017 23:00:00 - 17.11.2017 23:00:00 (CET)Junsele, Suède (2244): Direction du vent: 11.11.2017 23:00:00 - 17.11.2017 23:00:00 (CET)Junsele, Suède (2244): reduced air pressure: 11.11.2017 23:00:00 - 17.11.2017 23:00:00 (CET)Junsele, Suède (2244): visibility: 11.11.2017 23:00:00 - 17.11.2017 23:00:00 (CET)Junsele, Suède (2244): Quantités de précipitations: 11.11.2017 23:00:00 - 17.11.2017 23:00:00 (CET)
Date & Time tt [°C] td [°C] ff [km/h] ff [knt] fx [km/h] fx [knt] dd ppp [hPa] vv [km] rr [mm]
17.11.2017 23:00:00 -6,5 -7,0 2 1 6 3 N 996,0 33 0,0
17.11.2017 22:00:00 -4,4 -4,5 3 2 9 5 W 995,7 18 0,0
17.11.2017 21:00:00 -4,7 -5,2 3 2 5 3 SSW 995,5 34 0,0
17.11.2017 20:00:00 -4,3 -4,4 2 1 5 3 SE 995,5 35 0,0
17.11.2017 19:00:00 -3,9 -4,2 2 1 6 4 WSW 995,4 29 0,0
17.11.2017 18:00:00 -3,8 -3,8 3 2 8 5 W 995,6 21 0,0
17.11.2017 17:00:00 -3,9 -3,9 2 1 7 4 W 995,9 6 0,0
17.11.2017 16:00:00 -3,6 -3,7 3 2 11 6 WSW 995,9 12 0,0
17.11.2017 15:00:00 -1,9 -2,2 5 3 13 7 WSW 995,4 9 0,0
17.11.2017 14:00:00 -1,0 -1,7 6 3 16 9 W 995,5 19 0,0
17.11.2017 13:00:00 -0,7 -1,1 5 3 17 9 WSW 995,2 19 0,0
17.11.2017 12:00:00 -0,4 -0,7 5 3 16 9 WSW 995,5 19 0,0
17.11.2017 11:00:00 -0,2 -0,3 8 4 19 10 W 995,4 17 0,0
17.11.2017 10:00:00 -0,2 -0,2 8 5 17 9 W 995,0 23 0,0
17.11.2017 09:00:00 -0,6 -0,6 3 2 11 6 W 994,7 19 0,0
17.11.2017 08:00:00 0,1 0,1 5 3 14 8 W 994,7 3,0 0,6
17.11.2017 07:00:00 0,1 0,1 4 2 10 6 W 994,6 1,5 0,9
17.11.2017 06:00:00 0,0 0,0 5 3 18 10 W 994,5 1,4 1,0
17.11.2017 05:00:00 0,0 0,0 4 2 9 5 WSW 994,3 2,4 0,6
17.11.2017 04:00:00 0,0 0,0 3 1 7 4 NW 994,8 1,7 1,0
17.11.2017 03:00:00 0,1 0,1 3 1 6 3 SSE 995,5 1,9 0,8
17.11.2017 02:00:00 0,1 0,1 2 1 12 6 ESE 996,1 2,1 0,7
17.11.2017 01:00:00 0,1 0,1 5 3 12 7 SE 996,7 2,0 0,7
17.11.2017 00:00:00 -0,1 -0,1 5 3 10 6 SE 997,8 3,5 0,2
16.11.2017 23:00:00 -0,3 -0,3 5 3 13 7 SE 999,0 3,6 0,5
16.11.2017 22:00:00 -0,6 -0,6 5 3 13 7 SE 1000,2 2,7 0,6
16.11.2017 21:00:00 -0,7 -0,7 8 4 16 9 SSE 1001,6 1,2 0,6
16.11.2017 20:00:00 -1,2 -1,5 7 4 20 11 SSE 1002,5 2,0 0,1
16.11.2017 19:00:00 -1,5 -2,2 6 4 14 8 SE 1003,6 47 0,0
16.11.2017 18:00:00 -1,9 -2,2 7 4 17 9 SE 1004,5 43 0,0
16.11.2017 17:00:00 -2,5 -2,6 7 4 14 8 ESE 1006,2 33 0,0
16.11.2017 16:00:00 -3,2 -3,3 7 4 13 7 ESE 1007,8 30 0,0
16.11.2017 15:00:00 -3,2 -3,2 3 2 8 5 E 1009,4 30 0,0
16.11.2017 14:00:00 -2,9 -2,9 5 3 9 5 SE 1010,5 26 0,0
16.11.2017 13:00:00 -2,5 -2,5 3 2 9 5 E 1011,0 23 0,0
16.11.2017 12:00:00 -2,3 -2,3 3 1 6 3 ESE 1011,7 24 0,0
16.11.2017 11:00:00 -3,1 -3,2 3 2 15 8 WSW 1012,0 16 0,0
16.11.2017 10:00:00 -3,2 -3,2 6 3 11 6 WSW 1012,5 30 0,0
16.11.2017 09:00:00 -4,6 -4,7 2 1 5 3 E 1013,0 27 0,0
16.11.2017 08:00:00 -5,1 -5,9 3 2 12 6 SW 1012,5 33 0,0
16.11.2017 07:00:00 -3,7 -3,8 7 4 13 7 W 1011,9 50 0,0
16.11.2017 06:00:00 -2,2 -2,2 6 3 15 8 WSW 1011,5 50 0,0
16.11.2017 05:00:00 -2,3 -2,3 8 5 16 9 W 1010,8 50 0,0
16.11.2017 04:00:00 -1,5 -1,5 6 3 17 9 W 1010,1 50 0,0
16.11.2017 03:00:00 -0,6 -0,6 9 5 16 9 W 1009,2 50 0,0
16.11.2017 02:00:00 -1,5 -1,5 5 3 11 6 W 1008,3 31 0,0
16.11.2017 01:00:00 -1,2 -1,2 6 3 17 9 W 1007,1 50 0,0
16.11.2017 00:00:00 -1,1 -1,1 8 4 19 10 W 1006,1 22 0,0
15.11.2017 23:00:00 -3,3 -3,3 5 3 11 6 W 1005,9 50 0,0
15.11.2017 22:00:00 -6,0 -6,4 4 2 10 5 WSW 1005,7 50 0,0
15.11.2017 21:00:00 -8,6 -9,4 1 1 6 4 SW 1005,7 50 0,0
15.11.2017 20:00:00 -10,4 -11,2 3 1 4 2 E 1005,8 50 0,0
15.11.2017 19:00:00 -11,0 -12,2 1 1 6 3 WNW 1006,0 50 0,0
15.11.2017 18:00:00 -9,6 -10,4 1 1 8 4 SE 1005,4 50 0,0
15.11.2017 17:00:00 -10,2 -11,2 2 1 8 5 SE 1005,4 50 0,0
15.11.2017 16:00:00 -9,7 -10,6 3 2 5 3 ENE 1005,2 49 0,0
15.11.2017 15:00:00 -8,0 -8,7 1 1 3 2 S 1004,8 40 0,0
15.11.2017 14:00:00 -6,9 -7,4 1 1 3 2 S 1004,6 50 0,0
15.11.2017 13:00:00 -6,8 -7,3 2 1 3 2 ESE 1004,1 50 0,1
15.11.2017 12:00:00 -7,1 -7,6 2 1 4 2 NNE 1003,8 44 0,0
15.11.2017 11:00:00 -7,8 -8,5 2 1 6 4 ESE 1004,0 6 0,4
15.11.2017 10:00:00 -8,5 -9,3 3 2 6 3 ESE 1004,1 2,0 0,3
15.11.2017 09:00:00 -9,3 -10,1 2 1 6 3 SSE 1004,1 50 0,0
15.11.2017 08:00:00 -10,0 -10,9 3 1 8 4 SE 1004,3 12 0,0
15.11.2017 07:00:00 -10,2 -11,1 2 1 5 3 ENE 1004,1 33 0,0
15.11.2017 06:00:00 -9,7 -10,5 4 2 8 5 S 1004,4 2,3 0,0
15.11.2017 05:00:00 -9,5 -10,3 3 2 8 4 ENE 1004,6 1,2 0,0
15.11.2017 04:00:00 -9,9 -10,8 3 2 6 4 SE 1005,0 28 0,0
15.11.2017 03:00:00 -9,9 -10,8 4 2 9 5 SSE 1005,5 4,7 0,0
15.11.2017 02:00:00 -9,5 -10,3 2 1 8 4 SE 1005,1 2,3 0,0
15.11.2017 01:00:00 -9,4 -10,2 1 1 6 3 SSE 1005,1 1,1 0,0
15.11.2017 00:00:00 -9,6 -10,2 3 2 6 3 SE 1005,1 0,2 0,0
14.11.2017 23:00:00 -9,6 -10,2 2 1 5 3 ENE 1004,9 0,9 0,0
14.11.2017 22:00:00 -10,6 -11,1 3 1 4 2 SSE 1004,9 0,6 0,0
14.11.2017 21:00:00 -13,1 -14,4 2 1 5 3 NNE 1004,8 47 0,0
14.11.2017 20:00:00 -13,2 -14,8 3 1 4 2 ESE 1004,3 49 0,0
14.11.2017 19:00:00 -11,5 -12,5 2 1 4 2 E 1004,1 50 0,0
14.11.2017 18:00:00 -10,8 -12,0 1 1 4 2 SW 1004,1 50 0,0
14.11.2017 17:00:00 -9,5 -10,6 1 1 5 3 ESE 1004,1 50 0,0
14.11.2017 16:00:00 -8,1 -8,6 2 1 4 2 ESE 1004,1 50 0,0
14.11.2017 15:00:00 -6,4 -6,8 1 0 3 1 SE 1003,9 45 0,0
14.11.2017 14:00:00 -4,3 -4,8 2 1 5 3 SE 1003,9 45 0,0
14.11.2017 13:00:00 -5,7 -6,2 3 1 4 2 SE 1004,2 48 0,0
14.11.2017 12:00:00 -6,3 -7,0 3 1 4 2 E 1004,2 50 0,0
14.11.2017 11:00:00 -5,8 -6,2 2 1 8 4 E 1004,3 45 0,0
14.11.2017 10:00:00 -7,3 -8,1 2 1 5 3 E 1004,7 42 0,0
14.11.2017 09:00:00 -7,4 -7,5 2 1 5 3 ENE 1004,9 49 0,0
14.11.2017 08:00:00 -7,5 -7,9 2 1 5 3 S 1005,0 50 0,0
14.11.2017 07:00:00 -6,5 -6,9 2 1 5 3 WSW 1004,9 44 0,0
14.11.2017 06:00:00 -6,7 -6,8 1 1 5 3 S 1005,2 50 0,0
14.11.2017 05:00:00 -7,5 -8,4 3 2 9 5 SW 1005,6 50 0,0
14.11.2017 04:00:00 -5,7 -5,7 2 1 7 4 ESE 1005,6 50 0,0
14.11.2017 03:00:00 -5,8 -6,1 1 1 8 4 S 1006,0 50 0,0
14.11.2017 02:00:00 -4,9 -5,2 6 3 12 7 W 1006,1 50 0,0
14.11.2017 01:00:00 -4,1 -4,8 6 4 15 8 W 1006,0 50 0,0
14.11.2017 00:00:00 -4,1 -4,4 6 4 12 7 W 1005,9 50 0,0
13.11.2017 23:00:00 -3,5 -3,8 4 2 15 8 W 1006,1 50 0,0
13.11.2017 22:00:00 -2,8 -3,2 8 4 15 8 W 1005,9 50 0,0
13.11.2017 21:00:00 -1,6 -2,2 9 5 18 10 W 1006,0 50 0,0
13.11.2017 20:00:00 -0,4 -1,0 6 3 11 6 W 1005,9 50 0,0
13.11.2017 19:00:00 -1,1 -1,4 3 2 12 6 W 1005,8 50 0,0
13.11.2017 18:00:00 0,2 -0,4 3 2 15 8 WSW 1005,4 50 0,0
13.11.2017 17:00:00 0,0 -0,3 4 2 12 6 W 1005,0 50 0,1
13.11.2017 16:00:00 0,0 -0,3 7 4 12 6 WSW 1004,7 50 0,0
13.11.2017 15:00:00 0,1 -0,2 4 2 10 5 W 1004,2 28 0,0
13.11.2017 14:00:00 0,3 -0,1 4 2 13 7 W 1004,1 50 0,0
13.11.2017 13:00:00 0,5 -0,4 5 3 15 8 W 1003,9 35 0,0
13.11.2017 12:00:00 -0,2 -1,0 7 4 12 7 W 1003,8 50 0,0
13.11.2017 11:00:00 -0,7 -1,4 5 3 12 6 W 1003,5 39 0,0
13.11.2017 10:00:00 -1,3 -1,6 7 4 13 7 W 1003,3 14 0,1
13.11.2017 09:00:00 -2,1 -2,2 7 4 16 8 W 1003,1 3,8 0,2
13.11.2017 08:00:00 -3,2 -3,3 5 3 9 5 W 1003,0 3,4 0,1
13.11.2017 07:00:00 -4,1 -4,4 3 2 9 5 W 1002,6 28 0,0
13.11.2017 06:00:00 -5,1 -5,5 3 2 9 5 WSW 1002,3 50 0,0
13.11.2017 05:00:00 -4,4 -4,9 3 2 8 4 W 1002,0 50 0,0
13.11.2017 04:00:00 -5,0 -5,4 2 1 10 5 W 1001,7 50 0,0
13.11.2017 03:00:00 -4,6 -5,3 4 2 12 6 W 1001,2 50 0,0
13.11.2017 02:00:00 -3,9 -4,4 5 3 14 8 W 1000,5 50 0,0
13.11.2017 01:00:00 -2,8 -3,5 5 3 13 7 W 999,9 50 0,0
13.11.2017 00:00:00 -1,8 -2,8 5 3 12 7 W 999,2 50 0,0
12.11.2017 23:00:00 -1,0 -2,0 5 3 20 11 WNW 998,5 50 0,0
12.11.2017 22:00:00 -0,7 -1,7 4 2 15 8 WNW 997,7 50 0,0
12.11.2017 21:00:00 -0,9 -2,0 4 2 14 7 NW 996,8 50 0,0
12.11.2017 20:00:00 -0,7 -1,8 3 2 16 9 NNW 996,0 50 0,0
12.11.2017 19:00:00 -0,6 -1,6 4 2 18 10 NNW 995,2 50 0,0
12.11.2017 18:00:00 -0,7 -1,5 5 3 16 9 WNW 994,2 50 0,0
12.11.2017 17:00:00 -0,7 -1,7 5 3 16 9 N 993,2 50 0,0
12.11.2017 16:00:00 -0,6 -1,7 6 3 21 11 NNW 992,3 50 0,0
12.11.2017 15:00:00 -0,7 -1,4 6 3 23 12 NW 991,6 34 0,0
12.11.2017 14:00:00 -0,5 -1,2 5 3 16 9 NW 991,0 29 0,0
12.11.2017 13:00:00 -0,8 -1,5 5 3 17 9 W 990,6 26 0,0
12.11.2017 12:00:00 -0,9 -1,7 6 3 18 10 WNW 990,3 50 0,0
12.11.2017 11:00:00 -1,0 -1,7 5 3 15 8 W 990,1 50 0,0
12.11.2017 10:00:00 -1,4 -2,0 6 3 17 9 WNW 990,1 50 0,0
12.11.2017 09:00:00 -2,3 -2,6 4 2 15 8 WNW 989,9 50 0,0
12.11.2017 08:00:00 -1,4 -1,7 4 2 10 5 W 989,7 47 0,0
12.11.2017 07:00:00 -1,7 -1,8 4 2 11 6 NW 989,4 50 0,0
12.11.2017 06:00:00 -2,2 -2,2 4 2 12 7 WNW 989,2 50 0,0
12.11.2017 05:00:00 -2,3 -2,4 3 2 10 5 WNW 989,1 50 0,0
12.11.2017 04:00:00 -1,4 -1,4 3 1 13 7 NNW 989,0 48 0,0
12.11.2017 03:00:00 -0,7 -0,7 3 2 10 5 NW 989,2 50 0,0
12.11.2017 02:00:00 -1,0 -1,0 3 2 9 5 NW 989,2 38 0,0
12.11.2017 01:00:00 -1,9 -1,9 2 1 9 5 NNW 989,3 3,9 0,0
12.11.2017 00:00:00 -0,9 -0,9 3 2 9 5 NNW 989,5 47 0,0
11.11.2017 23:00:00 -1,2 -1,2 1 1 6 3 NNW 989,6 20 0,0

tt = Température de l'air
td = dewpoint
ff = Vitesse du vent
fx = gusts
dd = Direction du vent
ppp = reduced air pressure
vv = visibility
rr = Quantités de précipitations

stations d'obs. à proximité